This is the latest recevied weather packets stored in our database for station/object N6RDS-8. If no packets are shown the sender has not sent any weather packets the latest 10 day(s).
| Time | Temp. | Humidity | Pressure | Rain* | Wind** | Luminosity | Snow |
|---|---|---|---|---|---|---|---|
| 1777727621 | 13.33° C | 75% | 1020.6 hPa | 0 mm | - | 32 W/m² | - |
| 1777727318 | 13.33° C | 74% | 1020.8 hPa | 0 mm | - | 28 W/m² | - |
| 1777727015 | 13.33° C | 75% | 1020.6 hPa | 0 mm | - | 21 W/m² | - |
| 1777726712 | 13.33° C | 74% | 1020.6 hPa | 0 mm | - | 17 W/m² | - |
| 1777726410 | 12.78° C | 76% | 1020.4 hPa | 0 mm | - | 13 W/m² | - |
| 1777726106 | 12.78° C | 75% | 1020.4 hPa | 0 mm | - | 10 W/m² | - |
| 1777725803 | 12.78° C | 76% | 1020.4 hPa | 0 mm | - | 7 W/m² | - |
| 1777725501 | 12.78° C | 76% | 1020.1 hPa | 0 mm | - | 4 W/m² | - |
| 1777725198 | 13.33° C | 75% | 1020.1 hPa | 0 mm | - | 2 W/m² | - |
| 1777724895 | 13.33° C | 75% | 1020 hPa | 0 mm | - | 1 W/m² | - |
| 1777724591 | 12.78° C | 76% | 1019.8 hPa | 0 mm | - | 0 W/m² | - |
| 1777724289 | 12.22° C | 78% | 1019.7 hPa | 0 mm | - | 0 W/m² | - |
| 1777723986 | 11.67° C | 81% | 1019.9 hPa | 0 mm | - | 0 W/m² | - |
| 1777723683 | 11.67° C | 82% | 1019.8 hPa | 0 mm | - | 0 W/m² | - |
| 1777723380 | 11.67° C | 81% | 1019.8 hPa | 0 mm | - | 0 W/m² | - |
| 1777723078 | 12.22° C | 80% | 1019.9 hPa | 0 mm | - | 0 W/m² | - |
| 1777722774 | 12.22° C | 80% | 1019.8 hPa | 0 mm | - | 0 W/m² | - |
| 1777722470 | 12.22° C | 80% | 1019.8 hPa | 0 mm | - | 0 W/m² | - |
| 1777722167 | 11.67° C | 81% | 1019.6 hPa | 0 mm | - | 0 W/m² | - |
| 1777721864 | 11.67° C | 81% | 1019.6 hPa | 0 mm | - | 0 W/m² | - |
| 1777721562 | 11.67° C | 81% | 1019.8 hPa | 0 mm | - | 0 W/m² | - |
| 1777721260 | 12.22° C | 80% | 1019.8 hPa | 0 mm | - | 0 W/m² | - |
| 1777720957 | 12.22° C | 80% | 1019.8 hPa | 0 mm | - | 0 W/m² | - |
| 1777720654 | 12.78° C | 78% | 1019.6 hPa | 0 mm | - | 0 W/m² | - |
| 1777720352 | 12.78° C | 78% | 1019.6 hPa | 0 mm | - | 0 W/m² | - |
* Rain latest hour (hover to see other rain measurements)
** Current wind speed in m/s (hover to see current wind gust speed)